Погода в Рассказово

Россия / Новосибирская область     53°39′53″N   77°55′14″E
темп.,
°C
ветер,
м/с
пор.,
м/с
влажн.,
%
обл.,
%
осадки,
мм/ч
давл.,
гПа
погр.,
м
11 апреля, вс
вс1101:00+1всв6986100 0.0 1040372
04:00+1всв5688100 0.0 1040276
07:00+1св379167 0.0 1041239
10:000св49956 0.0 1042310
13:00+1св36100100 0.0 1041221
16:00+1св46100100 0.0 1041274
19:00+1св4596100 0.0 1041274
22:000всв349191 0.0 1040112
12 апреля, пн
пн1201:00−3св229749 0.0 103913
04:00−3ссв119743 0.0 103811
07:00−4сз119869 0.0 103810
10:000зсз1292100 0.0 103777
13:00+2з23100100 0.0 1036101
16:00+3зюз24100100 0.0 103497
19:00+2зюз2298100 0.0 103320
22:00+1зсз338896 0.0 103339
13 апреля, вт
вт1301:00+1сз3690100 0.0 103288
04:00+2с41099100 0.6 1033241
07:00+2ссв4992100 0.6 1035206
10:00+3ссз24946 0.0 1036102
13:00+6ссз45794 0.0 1037545
16:00+7ссз45605 0.0 1037911
19:00+6зсз33725 0.0 103748
22:00+3зсз33765 0.0 103730
14 апреля, ср
ср1401:00+2сз33772 0.0 103724
04:00+1зсз33765 0.0 103622
07:00+1з3378100 0.0 103626
10:00+5з34687 0.0 1036203
13:00+9з455410 0.0 1034633
16:00+12з574022 0.0 10311104
19:00+11з3652100 0.0 1029155
22:00+8з346179 0.0 102846
15 апреля, чт
чт1501:00+6з4668100 0.0 102777
04:00+5з3572100 0.0 102568
07:00+4з33754 0.0 102438
10:00+8зюз35620 0.0 1024211
13:00+13зюз45470 0.0 1022677
16:00+16зюз45414 0.0 10201089
19:00+16зюз35475 0.0 1019366
22:00+11зюз33635 0.0 101924